Location: La Pernelle
(49.6188°N, 1.2999°W)
Time: 10:29:37
(UTC+00:00)

SL-16 R/B - Visible Passes

Search period start: 23 October 2021 00:00
Search period end: 02 November 2021 00:00
Orbit: 842 x 846 km, 71.0° (Epoch: 22 October)

Date Brightness Start Highest point End Pass type
(mag) Time Alt. Az. Time Alt. Az. Time Alt. Az.
23 Oct 2.9 03:18:49 50° E 03:18:49 50° E 03:23:24 10° SE visible
23 Oct 3.0 05:00:49 27° W 05:01:35 28° WSW 05:06:16 10° SSW visible
23 Oct 2.4 18:08:19 10° S 18:13:45 50° ESE 18:19:14 10° NE visible
23 Oct 3.6 19:52:55 10° WSW 19:58:04 35° NW 20:03:17 10° NNE visible
23 Oct 5.0 21:42:02 10° NW 21:44:02 12° NNW 21:45:13 11° N visible
24 Oct 4.0 03:06:59 23° SE 03:06:59 23° SE 03:09:03 10° SE visible
24 Oct 3.3 04:49:00 24° SW 04:49:00 24° SW 04:52:02 10° SSW visible
24 Oct 2.4 17:54:01 10° S 17:59:26 48° ESE 18:04:53 10° NE visible
24 Oct 3.6 19:38:32 10° WSW 19:43:43 36° NW 19:48:57 10° NNE visible
24 Oct 5.0 21:27:33 10° NW 21:29:39 12° NNW 21:31:22 11° N visible
25 Oct 4.1 04:37:04 13° SSW 04:37:04 13° SSW 04:37:47 10° SSW visible
25 Oct 2.5 17:39:44 10° S 17:45:07 47° ESE 17:50:32 10° NE visible
25 Oct 3.6 19:24:08 10° WSW 19:29:23 37° NW 19:34:38 10° NNE visible
25 Oct 4.9 21:13:04 10° NW 21:15:16 12° NNW 21:17:27 10° N visible
26 Oct 2.6 17:25:27 10° S 17:30:48 45° ESE 17:36:11 10° NE visible
26 Oct 3.5 19:09:46 10° WSW 19:15:01 38° NW 19:20:19 10° NNE visible
26 Oct 4.9 20:58:35 10° NW 21:00:54 12° NNW 21:03:13 10° N visible
27 Oct 3.5 18:55:23 10° WSW 19:00:41 39° NW 19:06:00 10° NNE visible
27 Oct 4.9 20:44:06 10° NW 20:46:31 13° NNW 20:48:56 10° N visible
28 Oct 3.4 18:41:01 10° WSW 18:46:20 40° NW 18:51:41 10° NNE visible
28 Oct 4.8 20:29:37 10° NW 20:32:08 13° NNW 20:34:39 10° N visible
29 Oct 3.4 18:26:38 10° WSW 18:31:59 41° NW 18:37:22 10° NNE visible
29 Oct 4.8 20:15:09 10° NW 20:17:45 13° NNW 20:20:22 10° N visible
30 Oct 3.4 18:12:15 10° WSW 18:17:38 42° NW 18:23:03 10° NNE visible
30 Oct 4.8 20:00:41 10° NW 20:03:23 13° NNW 20:06:05 10° N visible
31 Oct 3.3 17:57:53 10° SW 18:03:18 43° NW 18:08:44 10° NNE visible
31 Oct 4.7 19:46:13 10° WNW 19:49:00 14° NNW 19:51:47 10° N visible
01 Nov 3.3 17:43:31 10° SW 17:48:57 45° NW 17:54:24 10° NNE visible
01 Nov 4.7 19:31:46 10° WNW 19:34:37 14° NNW 19:37:29 10° N visible
